Bakersfield, CA

9:43 AM PDT on August 30, 2016 (GMT -0700)
Meadows

Weather History for KBFL - February, 2013

Change the Weather History Date:

Thursday, February 7, 2013

  Actual Average Record
Temperature  
Mean Temperature 47 °F 51 °F  
Max Temperature 56 °F 61 °F 81 °F (1987)
Min Temperature 37 °F 41 °F 26 °F (1989)
Degree Days  
Heating Degree Days 18    
Month to date heating degree days 77  
Since 1 July heating degree days 1323  
Cooling Degree Days 0    
Month to date cooling degree days 0  
Year to date cooling degree days 0  
Moisture  
Dew Point 39 °F    
Average Humidity 71    
Maximum Humidity 86    
Minimum Humidity 55    
Precipitation  
Precipitation 0.00 in 0.04 in 0.73 in (2009)
Month to date precipitation 0.00 0.31  
Year to date precipitation 0.83 1.47  
Since 1 July precipitation 1.62  
Snow  
Snow 0.00 in - - ()
Month to date snowfall 0.0  
Since 1 July snowfall 0.0  
Snow Depth 0.00 in    
Sea Level Pressure  
Sea Level Pressure 30.09 in    
Wind  
Wind Speed 4 mph (NW)    
Max Wind Speed 15 mph    
Max Gust Speed 18 mph    
Visibility 7 miles    
Events      
T = Trace of Precipitation, MM = Missing Value Source: NWS Daily Summary

Daily Weather History Graph

Daily Weather History Graph

Search for Another Location

Airport or City:

Trip Planner

Search our weather history database for the weather conditions in past years. The results will help you decide how hot, cold, wet, or windy it might be!

Date:

Astronomy

Feb. 07, 2013 Rise Set
Actual Time 6:50 AM PST 5:30 PM PST
Civil Twilight 6:24 AM PST 5:57 PM PST
Nautical Twilight 5:53 AM PST 6:27 PM PST
Astronomical Twilight 5:24 AM PST 6:57 PM PST
Moon 4:31 AM PST (2/7) 3:03 PM PST (2/7)
Length of Visible Light 11h 33m
Length of Day
10h 40m
Waning Crescent, 8% of the Moon is Illuminated
Feb 7
Waning Crescent
Feb 9
New
Feb 17
First Quarter
Feb 25
Full
Mar 4
Last Quarter

Hourly Weather History & Observations

Time (PST) Temp. Windchill Dew Point Humidity Pressure Visibility Wind Dir Wind Speed Gust Speed Precip Events Conditions
12:54 AM 42.1 °F - 37.0 °F 82% 30.15 in 10.0 mi Calm Calm - N/A   Clear
1:54 AM 39.0 °F - 33.1 °F 79% 30.14 in 9.0 mi Calm Calm - N/A   Clear
2:54 AM 42.1 °F 40.2 °F 35.1 °F 76% 30.13 in 10.0 mi ENE 3.5 mph - N/A   Clear
3:54 AM 39.2 °F - 33.8 °F 81% 30.12 in 9.0 mi Calm Calm - N/A   Clear
4:54 AM 37.9 °F - 33.1 °F 83% 30.12 in 10.0 mi Calm Calm - N/A   Clear
5:54 AM 37.0 °F - 32.0 °F 82% 30.13 in 9.0 mi Calm Calm - N/A   Clear
6:54 AM 37.9 °F - 34.0 °F 86% 30.13 in 7.0 mi Calm Calm - N/A   Clear
7:54 AM 41.0 °F - 36.0 °F 82% 30.13 in 7.0 mi Calm Calm - N/A   Clear
8:54 AM 45.0 °F - 36.0 °F 71% 30.13 in 9.0 mi Calm Calm - N/A   Clear
9:54 AM 48.0 °F - 37.9 °F 68% 30.14 in 8.0 mi WNW 4.6 mph - N/A   Clear
10:54 AM 51.1 °F - 39.9 °F 66% 30.15 in 8.0 mi WNW 12.7 mph - N/A   Partly Cloudy
11:11 AM 50.0 °F - 39.2 °F 66% 30.15 in 3.0 mi NW 12.7 mph - N/A   Mostly Cloudy
11:40 AM 48.2 °F - 41.0 °F 76% 30.14 in 3.0 mi NNW 11.5 mph - N/A   Haze
11:54 AM 50.0 °F - 42.1 °F 74% 30.14 in 3.0 mi NNW 12.7 mph - N/A   Haze
12:43 PM 46.4 °F 43.5 °F 41.0 °F 81% 30.12 in 3.0 mi NNW 5.8 mph - N/A   Haze
12:54 PM 48.0 °F - 41.0 °F 77% 30.12 in 3.0 mi North 6.9 mph - N/A   Haze
1:13 PM 50.0 °F - 42.8 °F 76% 30.12 in 3.0 mi NNW 9.2 mph - N/A   Haze
1:54 PM 50.0 °F - 41.0 °F 71% 30.11 in 5.0 mi NW 5.8 mph - N/A   Haze
2:44 PM 53.6 °F - 41.0 °F 62% 30.09 in 7.0 mi WNW 5.8 mph - N/A   Mostly Cloudy
2:54 PM 55.0 °F - 39.9 °F 57% 30.09 in 8.0 mi Calm Calm - N/A   Scattered Clouds
3:01 PM 55.4 °F - 39.2 °F 54% 30.09 in 8.0 mi North 4.6 mph - N/A   Mostly Cloudy
3:24 PM 53.6 °F - 39.2 °F 58% 30.08 in 8.0 mi Calm Calm - N/A   Overcast
3:54 PM 54.0 °F - 39.9 °F 59% 30.08 in 8.0 mi Calm Calm - N/A   Overcast
4:06 PM 53.6 °F - 39.2 °F 58% 30.08 in 8.0 mi WSW 5.8 mph - N/A   Overcast
4:30 PM 53.6 °F - 39.2 °F 58% 30.07 in 8.0 mi WSW 4.6 mph - N/A   Scattered Clouds
4:54 PM 53.1 °F - 39.0 °F 59% 30.06 in 8.0 mi SW 5.8 mph - N/A   Clear
5:54 PM 50.0 °F - 41.0 °F 71% 30.04 in 7.0 mi South 6.9 mph - N/A   Clear
6:54 PM 48.0 °F - 42.1 °F 80% 30.03 in 5.0 mi South 3.5 mph - N/A   Haze
7:54 PM 48.9 °F - 42.1 °F 77% 30.02 in 5.0 mi SE 3.5 mph - N/A   Haze
8:54 PM 48.0 °F - 42.1 °F 80% 29.99 in 5.0 mi East 6.9 mph - N/A   Haze
9:54 PM 48.0 °F - 41.0 °F 77% 29.99 in 5.0 mi Calm Calm - N/A   Haze
10:54 PM 46.9 °F - 43.0 °F 86% 29.99 in 4.0 mi WNW 4.6 mph - 0.00 in   Overcast
11:54 PM 45.0 °F 40.1 °F 39.9 °F 82% 29.99 in 3.0 mi West 9.2 mph - N/A   Haze